TELKOM 1

导读 | 星芒AI

TELKOM 1 是印度尼西亚第一颗通信卫星,由美国制造,于1976年发射。该卫星主要用于支持国家的电信、广播和数据传输需求,特别是在偏远地区提供通信服务。它运行在地球同步轨道上,覆盖范围广泛,为印尼的通信基础设施发展奠定了基础。TELKOM 1 的成功发射标志着印尼在航天和通信技术领域的重要进展,推动了国家现代化进程。

基本信息
目录编号:
25880
目录名称:
TELKOM 1
国际标识:
1999-042A
轨道中心:
EARTH
卫星名称:
TELKOM 1
卫星全名:
--
卫星状态:
在轨 (已飞行9577 天)
发射日期:
1999-08-12 UTC
国别 :
印度尼西亚 (ID)
星等 :
--
轨道信息
数据来源 国际轨道数据 AOE轨道数据
星历时间 2025-10-31T17:57:34+0800
10小时前
查看轨道信息
2025-11-01T01:00:00+0800
3小时前
查看轨道信息
半长轴 42163.018km 42162.99km
偏心率 0.0015489 0.0015522
轨道倾角 7.111° 7.112°
近地点辐角 242.653° 242.251°
升交点赤经 68.930° 68.928°
平近点角 325.599° 71.905°
近地点 35719.576km 35719.409km
远地点 35850.19km 35850.301km
周期 1436.009分钟 1436.008分钟
每日圈数 1.002779 1.00278
详细信息
使用方式:
暂无
2D轨道图
3D轨道图
轨道高度分析图
轨道倾角分析图
轨道综合分析图
查看轨道综合分析图